Location: Waco, TX
(31.5480°N, 97.1670°W)
Time: 10:15:17
(UTC-05:00)

ISS - Pass Details

Date: 12 August 2018
Orbit: 402 x 409 km, 51.6° (Epoch: 16 August)

Event Time Altitude Azimuth Distance (km) Brightness Sun altitude
Rises 20:42:01 0° 309° (NW) 2,319 1.7 -6.3°
Reaches altitude 10° 20:44:08 10° 304° (NW) 1,458 0.6 -6.7°
Maximum altitude 20:47:18 49° 228° (SW) 524 -3.1 -7.3°
Drops below altitude 10° 20:50:28 10° 152° (SSE) 1,454 -1.5 -7.9°
Enters shadow 20:51:12 - 150° (SSE) 1,746 -1.1 -8.1°
Sets 20:52:35 0° 147° (SSE) 2,312 - -8.4°
